Location: Clanezzo
(45.7500°N, 9.6000°E)
Time: 13:19:59
(UTC+00:00)

SPROUT - Pass Details

Date: 04 July 2022
Orbit: 588 x 598 km, 97.9° (Epoch: 19 August)

Event Time Altitude Azimuth Distance (km) Brightness Sun altitude
Exits shadow 23:20:56 23° 103° (ESE) 1,267 ? -21.4°
Maximum altitude 23:22:25 29° 67° (ENE) 1,091 ? -21.4°
Drops below altitude 10° 23:26:02 10° 7° (N) 1,928 ? -21.4°
Sets 23:28:24 0° 357° (N) 2,836 ? -21.4°
